Wind_Speed
108 108 108 107 106 105 103 102 102 103 102 99 97 96 97 98 98 97 96 95 94 92 89 86 83 82 82 82 81 80 79 78 78 80 81 80 78 76 73 70 69 71 71 70 69 68 68 68 67 66 64 61 62 63 69 80 90 95 97 103 111 117 121 123 120 117 118 118 118 118 118 117 116 116 115 116 116 116 115 113 112 111 110 109 109
107 106 105 104 103 102 101 102 103 103 102 100 98 98 99 100 99 97 96 94 93 91 89 85 82 81 80 79 79 78 78 77 77 77 77 76 75 73 70 66 67 69 69 68 67 66 65 66 65 64 62 60 61 64 69 80 90 94 96 100 109 116 120 122 120 118 119 119 118 118 118 118 117 117 116 116 117 118 117 116 115 114 113 112 112
105 104 103 102 101 100 101 103 104 104 102 100 100 100 101 100 99 97 95 94 93 92 89 85 82 80 79 77 76 76 76 76 76 76 74 72 72 71 67 64 65 67 67 65 65 64 63 63 63 63 61 59 61 64 69 79 88 94 95 98 106 115 120 122 121 121 121 120 118 119 119 119 118 117 116 116 118 119 120 118 117 116 116 115 115
103 102 101 100 100 100 102 104 105 104 103 101 101 102 101 99 98 97 96 95 94 92 89 86 83 80 78 76 75 75 75 76 75 74 71 69 69 67 65 63 64 65 65 63 62 62 61 60 61 62 60 58 60 64 69 78 87 92 94 97 104 114 120 123 123 123 123 121 120 120 120 120 119 117 117 118 118 120 122 121 119 118 117 118 118
102 100 99 99 100 102 103 105 106 105 103 103 102 102 100 98 97 97 96 96 95 93 89 86 83 80 78 76 74 74 75 74 74 72 68 67 67 65 62 63 63 63 63 61 59 59 59 58 59 60 59 58 60 64 68 77 85 91 92 96 103 113 121 123 124 125 125 123 121 121 119 118 119 118 118 120 121 122 123 123 121 120 119 119 119
100 99 99 99 101 103 105 106 106 105 104 103 102 101 99 97 97 97 98 98 97 94 90 87 83 80 77 75 74 73 73 73 73 70 66 65 65 62 60 62 62 61 61 59 57 56 57 57 57 58 57 58 61 64 69 76 85 89 91 96 104 113 121 124 125 126 126 124 122 121 119 117 119 119 118 120 122 122 123 123 122 120 119 119 119
100 99 99 100 102 104 105 106 106 105 104 103 102 100 98 97 97 98 99 99 97 95 91 87 83 79 76 74 73 72 72 73 72 67 63 63 63 60 59 60 60 59 59 57 54 54 54 55 55 55 56 58 61 65 69 76 84 88 90 95 104 114 121 125 126 127 126 125 123 121 119 117 119 120 119 121 122 122 123 123 121 121 120 119 118
100 100 100 101 103 104 106 106 106 105 104 103 101 99 98 98 99 100 100 100 99 96 92 86 81 78 75 72 71 70 70 72 70 65 62 62 61 59 59 58 58 58 57 54 52 52 52 53 53 54 55 58 61 65 70 77 83 87 88 94 104 114 122 126 128 128 127 126 124 122 119 119 120 120 121 123 123 123 123 121 118 119 120 120 120
100 100 101 102 104 105 106 106 106 106 104 103 101 100 99 99 100 101 102 101 100 98 93 87 81 76 73 71 68 67 68 70 68 63 61 61 59 58 58 56 56 56 54 52 51 50 50 51 52 53 56 58 61 65 71 77 83 86 87 92 102 113 121 126 129 129 128 127 125 123 121 120 121 122 124 125 124 123 122 120 119 119 119 119 121
100 101 103 104 105 106 106 107 107 106 104 103 102 101 100 101 102 103 103 103 102 99 93 87 80 75 72 69 66 65 67 69 66 61 59 59 57 57 57 55 54 55 52 49 49 49 49 49 51 53 55 57 61 66 72 78 82 85 86 91 101 112 121 126 129 130 130 128 126 124 122 121 122 124 124 123 122 121 120 120 120 122 122 121 122
102 103 105 106 106 106 107 107 107 106 105 104 103 102 102 102 103 103 104 105 104 100 93 86 79 74 71 68 64 63 64 66 64 60 58 57 55 56 56 54 53 52 50 48 47 47 48 49 51 52 54 57 61 66 72 77 82 84 85 90 101 111 120 126 129 130 130 129 127 125 124 122 122 123 123 121 119 119 119 119 120 122 122 122 122
104 106 107 107 107 107 108 108 107 107 106 105 105 104 103 104 104 105 106 106 105 100 93 85 78 74 70 66 63 61 62 62 61 58 56 55 53 54 55 54 51 49 47 46 46 46 47 49 50 51 53 57 61 65 70 76 80 81 83 90 100 110 119 125 130 131 131 130 129 127 125 122 121 122 121 119 118 118 119 120 120 121 120 118 116
107 109 109 109 108 108 109 108 108 108 108 107 107 106 105 105 106 106 107 107 105 100 93 85 78 73 70 66 63 61 61 60 59 57 55 53 51 53 54 53 50 46 44 45 45 45 47 48 49 50 52 56 60 64 69 75 78 78 81 89 98 108 117 126 131 133 133 132 131 128 125 123 121 120 119 117 117 118 119 120 121 120 118 114 111
111 112 112 111 110 109 109 109 110 110 110 109 109 108 108 107 108 108 109 108 106 100 92 84 77 73 70 65 62 61 60 58 57 55 53 51 50 52 52 51 47 44 43 43 44 45 46 47 47 48 51 54 58 62 68 73 76 76 80 87 97 106 116 125 131 133 134 133 131 128 125 124 122 119 116 115 115 116 117 118 119 118 115 113 112
114 115 114 113 111 111 111 111 112 112 112 112 111 111 111 110 110 111 111 110 107 101 91 82 76 72 69 65 62 61 59 57 55 54 52 50 49 51 50 48 45 42 41 42 42 44 45 45 46 47 49 53 57 62 67 71 72 74 79 87 95 105 115 124 130 133 134 133 130 126 124 122 120 119 116 114 114 114 115 116 117 117 116 115 116
117 117 116 115 113 113 113 113 114 115 115 114 114 114 114 113 113 113 113 112 108 100 90 81 74 70 68 65 62 61 59 55 53 52 50 48 49 49 48 45 42 40 40 40 41 43 44 44 44 46 49 53 57 62 66 69 70 72 78 86 94 103 114 123 129 132 133 132 129 125 122 119 117 117 116 113 112 114 116 119 120 121 120 119 119
119 119 118 116 115 115 115 116 116 116 116 116 116 116 116 115 115 115 114 112 108 100 89 80 73 68 66 64 61 60 59 54 50 50 49 47 48 48 45 42 39 38 39 39 40 42 43 43 44 45 49 53 57 61 64 67 68 71 77 85 92 101 112 121 127 131 132 131 128 125 123 120 117 117 116 112 112 114 118 121 123 123 122 121 120
121 121 120 118 117 116 117 118 118 117 117 117 117 117 117 116 116 115 114 112 107 98 88 78 72 66 64 63 60 58 58 54 49 48 47 46 47 46 43 40 37 36 37 38 39 41 41 42 42 45 49 53 57 60 63 65 68 71 77 84 91 100 111 121 126 130 131 130 127 124 124 123 121 118 116 114 114 116 118 120 121 122 121 120 119
123 122 122 120 119 118 119 120 119 118 118 118 118 118 117 116 116 116 114 112 106 97 86 77 70 65 63 62 60 57 56 53 48 45 45 44 45 45 41 37 35 35 36 37 39 40 40 40 42 45 49 52 55 58 61 65 69 73 77 83 90 100 112 120 125 128 128 127 125 124 124 123 121 118 115 114 114 114 116 118 121 123 122 120 118
124 124 122 121 120 120 121 120 119 118 118 118 118 118 117 117 116 115 114 111 105 95 84 76 69 64 61 61 59 56 55 52 47 44 43 44 44 43 39 35 33 34 35 36 39 40 40 41 43 46 49 51 53 56 60 64 69 74 78 82 90 101 111 117 122 125 126 125 124 123 122 120 118 116 114 112 111 111 112 116 120 123 123 121 119
125 124 123 122 122 122 121 120 119 118 118 118 118 117 116 116 116 115 113 110 103 93 83 75 68 63 60 59 57 55 54 52 47 42 42 43 43 41 37 33 32 33 35 37 39 40 40 42 44 47 48 49 52 55 60 65 70 74 78 82 91 102 109 114 120 124 125 125 124 122 119 117 116 116 113 111 109 108 110 114 119 122 123 122 120
125 124 123 123 123 123 122 120 119 118 118 118 117 117 116 116 115 113 112 109 101 91 82 74 68 63 60 57 55 53 52 51 46 42 41 41 41 39 36 32 32 33 35 37 38 39 40 42 44 47 48 49 52 56 60 65 70 75 79 84 92 101 106 113 121 125 126 126 124 120 118 117 117 116 114 111 109 108 109 113 118 121 123 122 120
126 125 125 125 124 123 122 120 119 119 119 118 117 116 115 115 114 112 111 107 98 89 82 74 67 63 60 56 53 51 50 49 45 41 40 40 39 38 34 31 32 33 34 37 38 38 40 42 44 46 48 49 53 57 61 65 70 75 79 84 92 99 105 114 122 125 126 125 122 119 117 117 116 115 113 110 108 106 107 111 116 120 121 121 120
127 126 126 126 125 124 122 120 120 120 119 118 117 115 114 113 112 111 109 104 96 88 81 74 67 62 59 56 53 50 48 48 45 41 39 39 38 37 33 31 32 33 34 36 38 38 40 42 43 46 47 49 52 57 61 66 71 76 79 84 92 98 106 116 123 125 125 123 119 117 116 115 114 113 111 108 105 102 103 109 115 118 119 119 120
128 128 128 127 125 124 122 120 120 120 120 119 117 114 113 111 110 109 107 101 92 85 80 73 66 61 57 54 52 50 48 46 43 40 39 37 36 35 32 31 32 33 34 36 38 39 40 42 44 46 47 49 53 57 61 66 71 76 79 85 92 100 109 118 123 123 122 119 116 115 115 114 112 109 106 104 102 101 103 109 115 118 118 119 121
130 130 129 127 125 123 122 121 121 121 121 120 117 114 111 109 108 107 104 98 89 83 79 73 66 62 57 52 50 49 48 47 43 40 38 36 35 34 31 30 32 33 33 35 37 39 40 42 44 46 47 50 53 57 62 67 72 77 81 86 94 102 111 120 123 122 120 117 115 114 112 111 109 106 103 103 103 103 105 108 112 115 116 117 120
132 131 129 126 124 122 121 121 122 122 122 120 118 114 110 108 106 105 101 94 86 81 78 73 66 62 57 52 48 46 47 46 43 40 38 36 34 33 31 30 31 32 33 35 37 39 40 42 44 46 47 51 54 58 63 68 73 78 83 90 97 104 114 122 123 121 119 117 115 113 110 109 107 105 105 106 106 106 105 104 106 111 115 117 120
134 132 128 125 123 121 121 121 122 123 123 121 118 114 110 107 106 104 99 91 82 77 75 71 66 61 56 53 49 45 45 45 42 40 38 35 33 32 30 30 31 31 32 34 36 39 41 43 45 46 48 52 56 60 64 69 74 79 85 93 100 107 116 123 123 122 121 120 118 115 111 109 107 107 107 107 107 107 105 103 104 110 115 119 121
134 131 127 125 123 121 121 121 122 123 123 121 118 115 110 106 104 102 97 88 78 72 70 68 64 59 54 51 47 45 44 43 41 39 37 35 33 31 29 29 30 31 32 34 36 39 41 43 45 47 50 54 58 62 66 71 76 81 88 96 103 110 118 123 124 124 123 122 120 118 115 111 109 107 106 105 104 105 106 105 105 108 113 118 121
133 130 127 125 123 121 121 122 122 122 122 120 119 116 111 107 103 100 95 86 76 70 67 65 61 56 52 49 45 42 43 42 40 38 37 35 32 30 29 30 31 32 33 34 36 37 39 42 45 48 51 55 59 63 66 71 77 83 90 99 107 113 119 124 124 124 124 123 122 120 117 114 111 108 106 104 101 101 103 106 107 109 110 112 115
131 129 126 124 123 122 122 122 122 121 120 119 117 115 111 108 104 100 94 86 76 69 66 64 60 54 50 48 44 40 41 41 39 37 36 35 32 30 30 30 32 33 34 35 36 36 39 43 46 49 52 55 60 64 67 71 77 84 92 102 110 116 121 124 125 124 124 124 123 120 117 115 112 109 107 105 101 99 101 104 108 111 111 110 109
130 128 125 124 123 123 123 123 122 121 119 117 115 112 109 106 104 101 95 87 78 69 64 62 59 54 48 46 44 40 39 40 38 36 36 35 32 30 30 31 33 34 34 35 36 37 40 45 49 52 56 59 62 65 69 73 79 85 94 105 115 120 123 125 125 124 123 123 122 120 118 115 112 111 111 108 101 97 98 101 104 107 109 109 107
129 127 125 124 124 124 124 123 122 120 118 116 114 109 104 101 100 99 96 90 82 72 63 58 57 54 48 44 42 40 38 38 37 35 35 35 32 31 31 33 34 35 35 36 38 39 43 47 51 56 59 62 64 67 71 76 82 87 97 109 118 123 125 124 123 123 121 120 121 120 117 115 114 113 113 110 102 96 96 97 98 99 102 103 103
127 126 126 125 125 125 125 124 122 120 118 115 111 106 100 96 94 94 92 89 84 77 68 58 53 51 48 45 42 39 37 37 36 35 35 35 33 32 32 34 35 36 37 38 40 42 45 49 54 58 62 64 66 68 72 79 85 91 101 111 119 123 124 122 120 120 119 118 118 118 116 114 114 113 110 107 103 99 96 95 95 96 97 98 98
127 127 127 126 126 126 125 124 122 119 117 113 108 102 96 93 91 89 87 85 82 78 71 62 53 49 46 44 42 40 37 36 35 34 35 35 34 33 33 35 36 37 38 40 42 45 48 52 57 61 65 68 69 71 75 81 88 94 104 113 118 119 120 119 119 118 117 116 115 115 114 113 114 113 110 106 104 102 98 96 96 96 96 96 95
128 128 127 127 127 126 125 124 121 119 115 110 105 98 92 89 88 86 84 82 79 76 70 62 53 48 45 43 42 40 37 36 34 33 34 35 34 34 35 36 38 39 40 42 45 47 50 54 59 64 68 71 73 75 79 85 91 97 104 112 116 117 116 117 118 118 117 116 115 114 113 114 114 115 115 111 107 104 101 100 98 97 96 95 94
128 128 128 128 127 126 125 123 120 117 113 107 101 94 89 86 85 83 81 79 77 73 68 61 53 47 44 43 41 39 37 36 34 33 34 35 35 35 36 38 39 40 41 44 47 49 52 56 61 67 72 75 77 81 85 89 95 101 105 110 115 117 117 117 118 118 118 118 117 115 115 115 116 116 115 113 109 105 103 101 100 97 96 94 93
129 129 128 128 127 126 124 122 118 114 109 103 97 91 87 84 82 80 77 76 74 70 65 59 53 47 44 42 41 39 37 36 34 33 33 35 35 36 38 39 40 42 43 45 48 51 54 58 63 69 74 78 82 87 91 95 100 105 108 111 115 118 119 118 119 119 119 119 119 117 116 116 116 115 114 111 108 105 102 100 99 98 97 95 93
129 129 129 128 127 126 123 119 115 110 104 98 92 87 84 83 81 78 75 74 72 68 62 57 52 47 43 41 39 39 38 36 34 33 34 35 36 37 39 40 42 43 44 47 50 53 56 59 64 70 76 81 85 92 97 100 104 108 112 113 116 120 121 120 120 120 120 120 119 118 117 116 115 114 112 110 107 105 102 99 98 99 98 97 95
130 130 129 128 127 124 121 116 111 105 99 93 88 85 83 82 80 77 74 72 69 66 61 55 50 46 43 41 38 38 37 36 35 34 34 35 36 38 40 42 43 45 46 48 52 55 58 61 66 72 78 83 89 96 101 104 107 111 114 116 118 121 122 121 121 121 121 120 119 118 117 116 115 113 112 110 108 105 102 100 100 100 98 96 94
131 130 129 128 126 122 118 113 106 99 94 89 85 83 82 81 78 75 73 70 67 63 59 54 50 46 43 41 38 37 36 36 36 34 34 35 37 38 40 43 45 46 48 50 53 56 60 63 67 74 80 85 92 99 104 108 110 113 115 117 119 121 122 122 122 122 122 121 120 119 118 116 115 113 112 110 108 105 102 100 99 98 95 93 92
131 130 129 127 124 119 114 107 100 94 89 85 82 81 81 80 77 74 71 68 65 61 57 53 49 46 43 40 38 36 36 36 36 35 34 35 37 39 41 43 46 48 50 51 54 57 61 64 69 74 80 87 94 102 108 111 112 114 116 117 120 122 123 123 123 123 123 123 122 120 119 117 116 114 112 110 108 105 103 100 96 92 89 87 87
131 130 128 124 120 115 108 101 95 89 85 82 81 81 80 78 76 72 69 66 63 60 56 52 49 46 43 40 38 36 35 36 36 36 35 36 37 39 41 44 47 49 51 53 55 58 61 65 69 74 80 87 95 104 111 114 115 116 116 117 119 122 123 123 123 124 124 124 123 121 120 118 117 115 113 112 109 107 104 101 95 90 87 84 81
131 128 125 120 115 108 102 95 90 85 82 80 80 80 79 77 74 71 67 64 61 58 55 51 48 45 42 40 38 36 35 35 36 36 36 36 38 40 42 45 48 51 53 55 57 59 62 65 69 74 80 87 95 104 112 116 117 118 118 118 120 123 124 123 123 123 124 124 124 123 121 119 118 116 115 113 112 110 108 104 99 94 91 88 82
129 125 120 115 108 102 96 90 86 82 80 80 80 79 78 75 72 69 66 62 59 57 54 51 48 45 42 39 38 36 35 35 36 36 36 37 38 40 43 46 49 52 54 57 59 61 64 66 69 73 79 86 95 104 112 116 119 120 121 120 121 123 124 123 122 122 123 124 124 124 122 119 118 117 116 115 114 113 111 108 104 101 98 94 87
125 119 114 108 102 96 91 87 83 81 80 79 79 79 76 73 70 68 64 60 57 55 53 50 48 45 41 39 38 36 35 35 36 37 37 37 39 41 44 47 49 53 56 58 60 62 65 67 70 73 79 86 95 104 112 117 120 122 122 122 122 123 124 123 122 121 122 123 123 123 122 119 118 117 116 115 114 114 113 111 108 106 104 99 93
118 112 107 101 96 91 87 84 82 81 80 79 78 77 74 71 69 67 63 58 56 54 52 50 48 45 41 39 37 36 35 34 35 37 37 37 39 42 45 47 50 53 56 59 62 63 65 68 71 74 79 86 94 103 112 118 121 123 124 124 123 123 124 124 123 122 122 122 122 123 122 120 118 117 116 114 112 110 110 109 108 107 106 103 99
110 105 100 95 91 88 85 83 81 80 79 78 77 75 72 70 68 66 61 57 54 53 51 50 47 44 41 38 37 36 35 34 35 37 38 38 39 42 45 48 51 54 57 60 63 65 67 69 72 75 79 85 93 103 112 119 123 125 126 126 125 125 125 124 124 123 122 122 122 123 123 121 119 117 116 115 112 109 106 105 104 104 104 103 101
102 98 95 91 88 85 84 82 81 80 78 77 75 73 70 68 67 65 61 56 53 52 50 49 47 44 41 38 37 36 35 34 35 37 38 38 39 42 45 48 51 54 57 60 63 66 68 70 72 75 79 85 92 101 111 119 125 127 128 129 128 127 126 126 125 124 123 123 123 123 124 124 123 120 118 116 115 113 110 106 103 101 101 101 101
97 94 91 88 86 84 82 81 80 79 77 75 73 71 68 66 65 63 59 55 53 51 49 49 47 45 41 38 37 36 36 35 35 36 38 38 40 42 45 48 51 54 57 60 63 66 69 71 73 75 79 85 92 100 110 119 126 129 130 131 131 129 128 127 127 126 125 124 124 125 126 126 126 126 123 120 117 117 116 113 107 102 101 101 101
93 90 88 86 84 83 82 81 80 78 76 73 71 69 66 64 63 61 58 55 53 51 49 48 47 45 42 39 37 37 36 35 35 36 38 39 40 42 45 48 51 54 57 60 63 66 69 71 73 76 79 84 91 99 108 118 126 130 132 133 133 132 131 130 129 128 128 127 127 128 128 128 128 128 128 125 122 120 120 119 115 109 104 102 102
Wind_Direction
307 308 308 308 309 312 314 316 317 317 317 318 319 320 320 320 320 319 318 317 315 314 312 310 307 304 301 299 298 296 294 291 288 286 285 285 284 282 280 279 276 273 270 268 265 262 260 259 257 254 249 243 236 227 219 218 221 221 217 213 211 208 207 207 205 205 208 209 210 212 213 213 214 214 214 214 216 217 217 218 217 217 217 217 216
308 308 309 311 312 315 317 318 318 318 318 320 321 321 321 321 320 319 319 318 317 315 313 311 308 305 303 301 299 297 295 292 289 287 286 286 284 283 281 279 275 272 269 267 264 261 259 257 256 253 249 242 235 227 218 217 219 221 218 213 210 208 207 206 204 204 207 208 209 210 211 212 213 213 213 213 215 216 216 217 217 216 215 215 215
309 310 312 314 316 318 319 319 319 319 320 321 322 322 322 322 321 320 320 319 318 316 314 312 309 306 304 302 300 298 296 293 291 289 287 286 284 283 282 279 275 271 268 266 263 261 258 255 254 251 247 240 234 226 218 215 218 220 217 213 209 207 207 205 203 203 206 207 208 210 211 211 211 212 212 213 214 215 215 216 217 217 214 214 214
310 312 314 316 318 319 320 320 320 321 322 323 323 323 323 322 322 321 321 321 319 317 315 313 310 308 306 304 303 300 297 294 292 290 289 287 284 283 282 279 274 271 268 265 263 260 257 254 252 250 245 239 232 225 218 214 216 219 217 212 208 207 206 205 202 202 204 206 207 209 210 210 210 210 211 211 213 214 215 215 216 217 215 214 214
313 315 317 319 320 321 321 321 322 322 324 324 324 324 324 323 322 322 322 321 320 317 316 314 312 310 308 307 305 302 298 295 293 291 289 287 285 284 282 278 274 271 269 266 262 260 257 254 251 248 244 237 231 225 218 213 215 218 217 212 208 206 206 204 202 201 203 205 206 208 209 209 210 210 209 210 212 213 214 214 215 216 216 215 215
316 317 319 320 321 322 322 322 323 324 325 325 325 325 324 324 323 323 323 322 320 318 316 315 313 311 310 309 307 303 299 296 293 292 290 288 286 285 282 278 274 271 269 266 263 260 257 253 250 247 242 236 230 224 217 212 213 217 216 212 207 206 205 204 202 201 202 204 205 207 208 209 210 210 209 210 212 212 213 213 213 214 215 215 215
317 318 320 321 322 323 323 323 324 325 326 326 326 326 325 325 324 324 323 322 320 318 317 315 314 312 311 310 307 303 300 296 293 293 292 289 287 285 281 278 275 272 269 267 263 260 256 253 249 245 239 233 228 222 216 212 213 216 216 212 207 206 205 203 201 201 202 203 204 206 207 208 209 209 209 210 211 211 212 211 212 213 214 213 214
318 319 320 321 322 323 324 324 325 326 327 327 327 327 326 326 325 324 323 322 320 318 317 315 314 313 312 311 307 303 299 296 294 294 293 290 288 285 281 278 275 272 270 267 264 259 255 252 247 242 236 230 226 220 214 211 212 215 215 212 208 206 205 203 201 201 202 203 204 205 206 207 208 209 209 210 210 210 210 209 209 211 213 213 213
319 320 321 322 323 324 324 325 326 327 328 328 328 328 328 327 326 325 323 322 320 319 317 316 314 314 313 310 306 302 298 295 294 294 293 290 288 285 281 278 275 272 269 266 263 259 255 250 245 239 234 228 223 218 213 211 212 214 214 211 208 207 205 203 201 201 201 203 204 204 205 206 207 208 209 210 209 210 209 207 206 209 211 213 214
319 320 321 322 323 324 325 326 327 328 329 329 329 329 328 328 326 325 323 322 320 319 317 316 315 315 314 310 306 302 298 295 294 295 293 291 289 285 281 278 274 272 269 266 262 258 253 248 243 237 231 225 220 216 213 211 212 214 213 209 208 207 205 203 201 201 202 202 203 204 205 206 206 207 208 209 209 209 208 207 207 209 211 212 214
320 321 322 322 324 325 326 327 328 328 329 330 330 330 329 328 326 325 323 322 320 318 317 317 316 316 314 310 306 302 297 295 295 295 293 290 289 285 281 277 273 271 269 266 262 257 252 246 241 235 229 222 218 216 214 212 212 213 211 208 207 207 205 203 202 201 202 202 203 204 205 205 205 207 208 208 208 208 207 206 208 210 212 214 215
321 321 322 323 324 326 327 328 328 329 330 330 330 330 329 328 326 325 324 322 320 318 318 318 318 317 314 310 306 302 297 296 297 295 293 291 289 284 280 277 273 271 269 265 261 256 251 244 239 233 226 221 217 215 214 212 213 213 210 207 207 207 205 203 202 202 202 202 203 203 204 204 204 206 207 207 207 208 207 206 206 209 211 214 216
321 322 322 323 325 327 328 329 329 330 330 331 331 330 329 328 327 325 323 321 319 318 318 319 319 318 314 310 307 303 299 298 298 296 293 292 289 283 279 276 274 271 268 264 259 255 249 243 237 231 225 220 217 215 213 212 212 212 210 207 207 206 204 202 202 202 202 202 203 203 203 203 203 205 206 207 207 207 207 206 206 208 210 211 213
321 322 323 324 326 327 328 329 330 330 330 331 331 330 329 328 327 325 323 321 319 318 319 319 319 318 315 311 308 304 300 300 299 296 294 292 287 282 278 275 274 271 266 262 258 253 247 241 235 229 223 219 216 214 213 212 211 210 208 207 206 206 203 202 202 202 202 203 203 202 202 202 201 202 204 205 206 206 206 205 205 207 208 208 210
321 322 323 324 326 327 328 329 330 330 330 330 330 330 329 328 326 325 323 321 319 318 319 319 320 319 315 310 308 304 301 301 300 296 293 291 285 281 277 275 273 269 264 260 256 251 245 239 233 226 221 218 215 213 212 212 211 208 206 206 206 205 203 202 203 203 203 204 203 202 202 202 201 201 203 204 205 205 203 202 203 204 205 206 208
321 321 323 324 326 327 328 329 329 329 329 329 329 329 329 328 326 325 323 320 318 318 319 319 319 319 315 310 308 305 302 301 299 295 292 289 283 279 276 274 271 267 262 258 254 249 243 237 231 224 220 217 214 212 211 210 209 207 205 204 205 204 203 203 203 203 204 204 203 202 202 202 202 203 203 204 204 204 202 199 200 202 204 205 207
320 321 323 324 325 327 328 329 328 328 328 328 328 328 328 327 326 324 322 320 318 318 319 319 319 318 315 310 308 305 302 300 298 294 291 287 282 278 275 273 270 264 260 256 251 246 240 235 229 223 218 216 214 212 210 208 207 205 204 203 204 204 203 204 204 204 204 204 203 201 201 202 202 203 203 203 204 204 203 201 201 202 204 205 208
320 321 322 324 325 326 327 328 327 327 327 327 328 328 328 327 325 324 322 319 318 318 319 319 319 318 315 310 307 305 302 300 297 294 290 286 281 278 275 272 268 262 258 254 249 244 238 233 227 221 218 216 213 211 209 206 205 204 203 203 203 203 203 204 204 204 204 204 202 201 201 201 202 203 203 203 203 204 205 203 202 202 204 206 208
319 320 322 323 324 325 326 326 326 326 326 327 327 328 327 326 325 323 321 318 317 318 319 320 319 317 315 311 308 305 302 299 296 293 289 284 280 277 275 271 266 260 255 250 245 240 234 228 223 219 217 216 214 211 208 205 203 202 202 202 201 202 203 204 204 203 203 203 202 201 201 202 202 203 204 204 205 205 206 205 202 202 204 206 208
319 320 321 322 323 324 325 325 325 325 325 326 327 327 327 326 325 323 320 318 317 318 319 320 319 317 314 311 308 305 302 299 296 293 288 283 279 277 275 270 263 257 252 246 241 235 229 223 218 216 216 215 213 211 208 204 202 201 202 201 200 201 203 204 203 202 201 202 202 202 202 202 203 203 204 205 206 207 207 206 204 203 204 205 207
318 319 321 322 323 323 324 324 324 324 325 326 327 327 327 326 324 322 320 318 317 318 320 320 319 317 314 311 308 305 302 298 296 293 287 282 279 276 274 268 260 254 249 243 238 231 224 219 216 215 214 212 210 209 207 204 202 201 201 200 200 202 203 202 201 200 200 201 201 201 201 202 204 205 205 206 206 207 207 206 205 204 205 206 207
318 319 320 321 322 322 323 323 323 323 324 325 326 327 327 325 324 322 319 318 317 319 320 319 319 316 314 310 307 305 301 297 295 292 286 281 279 276 272 265 256 250 245 240 234 227 220 216 215 214 212 209 207 206 206 204 202 201 201 200 200 202 202 199 198 199 200 200 201 201 201 202 204 206 206 206 206 207 206 206 205 205 206 206 207
318 319 320 321 321 321 322 322 322 322 323 325 326 327 326 325 323 321 319 317 317 319 320 319 318 317 314 310 307 304 301 297 294 291 285 281 278 275 271 262 253 247 242 236 230 223 217 214 214 214 212 208 206 205 204 203 202 202 201 200 200 201 199 198 197 198 200 200 200 200 200 202 204 206 207 207 207 206 206 205 205 206 207 207 207
318 319 319 320 320 321 321 321 321 322 323 324 326 327 326 324 322 320 318 316 317 319 320 319 318 316 314 311 307 304 300 296 294 290 285 280 277 273 268 259 250 244 239 233 227 219 213 212 212 213 211 207 206 204 203 202 202 202 201 199 199 199 197 196 197 198 200 200 200 199 200 202 205 207 208 208 208 207 206 206 206 207 207 207 207
317 318 319 319 319 320 320 320 321 321 323 324 326 326 325 324 321 319 317 315 317 319 319 319 318 316 313 311 308 304 300 296 293 289 284 279 275 271 265 256 248 242 236 230 224 216 210 209 211 212 209 206 205 204 202 201 201 201 200 198 198 197 195 195 197 198 199 200 199 199 201 202 204 207 208 209 209 207 206 206 207 207 207 207 207
317 318 318 318 319 319 319 320 320 321 322 324 325 326 325 323 320 318 316 315 317 320 320 319 318 316 313 310 307 304 300 296 292 288 283 278 273 268 261 252 245 239 233 228 222 215 209 207 209 210 208 205 204 203 202 200 199 200 199 197 197 196 194 194 196 198 198 199 198 199 200 202 204 205 207 209 209 208 206 207 207 207 207 207 208
316 317 317 317 318 318 319 319 320 321 322 324 325 326 325 322 319 317 314 314 316 320 320 318 317 315 312 309 306 303 298 294 291 286 281 276 270 264 257 248 242 237 230 225 220 214 208 206 208 208 206 204 203 202 201 200 198 198 197 196 196 195 193 193 195 197 197 197 197 197 199 201 203 204 206 208 210 209 207 207 207 208 208 209 209
315 316 316 317 317 318 318 319 319 320 322 323 325 325 324 322 318 315 313 313 316 319 319 317 316 314 311 308 306 302 296 292 289 284 279 274 268 261 253 245 240 234 228 223 219 215 209 206 206 206 204 203 203 202 201 199 198 197 196 195 195 194 193 193 194 195 196 197 197 196 197 199 201 203 205 208 210 211 210 208 208 208 209 210 210
315 315 315 316 316 317 317 318 319 320 322 323 325 325 324 321 317 314 312 312 316 319 319 317 314 312 309 306 304 301 295 289 286 282 277 272 265 258 249 241 236 231 226 222 219 216 211 206 205 204 203 202 202 202 201 199 198 196 195 194 194 194 193 193 194 195 196 197 197 196 197 198 200 203 205 207 210 212 211 210 209 209 209 210 211
314 314 314 315 316 316 317 318 319 320 322 323 325 325 324 320 316 312 311 312 315 319 319 316 313 311 308 304 301 299 294 288 284 280 275 269 262 254 245 237 232 228 224 221 219 217 212 207 205 204 203 203 202 202 202 200 198 196 194 193 193 193 193 194 195 195 196 196 197 197 198 199 200 202 204 207 210 212 213 213 212 211 211 212 212
313 313 313 314 315 316 316 317 319 320 322 323 324 325 323 320 316 312 311 312 315 318 319 317 313 310 308 304 300 296 291 286 282 278 272 266 258 249 240 234 229 225 222 220 218 216 212 208 205 204 203 204 203 203 202 201 200 197 193 192 192 192 193 195 196 195 196 197 198 198 199 200 201 202 204 207 210 212 214 215 214 214 214 214 215
311 312 313 313 314 315 316 317 318 320 321 323 324 324 323 319 315 312 311 312 314 317 318 317 312 309 307 303 299 295 289 284 280 275 269 263 255 245 237 231 227 224 220 218 217 214 210 207 204 202 202 203 203 202 201 201 200 197 193 191 191 192 194 196 196 195 196 198 199 200 200 201 202 203 205 207 210 212 215 217 217 217 217 217 218
310 311 312 313 314 314 315 317 318 319 321 322 323 324 322 318 314 311 310 311 313 315 317 316 312 309 306 302 297 293 288 282 277 272 266 260 252 243 234 229 226 222 218 216 215 212 209 207 204 202 202 203 203 202 201 200 199 197 193 191 192 193 195 196 195 195 196 198 200 201 202 202 203 205 207 209 211 214 217 218 219 219 219 220 220
309 310 311 312 313 314 315 317 318 319 321 322 323 322 320 315 311 309 309 310 311 313 315 315 312 308 305 301 296 291 286 280 275 269 263 257 250 240 233 228 225 221 217 215 214 211 207 205 203 202 202 203 203 202 200 199 198 196 193 192 193 195 196 196 195 195 196 198 200 202 203 204 205 207 209 211 213 215 217 218 219 220 221 222 223
309 310 311 312 313 314 315 316 317 319 320 321 322 321 318 313 309 308 308 308 309 311 312 313 311 307 304 300 295 289 284 278 273 266 259 254 247 238 232 228 224 220 216 213 212 210 207 204 202 201 202 202 203 202 200 198 197 195 193 193 194 195 196 196 195 195 196 198 200 202 203 205 207 209 211 212 214 216 217 218 220 222 223 224 225
308 309 310 312 313 314 315 316 317 318 319 320 321 319 315 310 307 307 307 307 308 308 309 310 309 306 303 298 293 287 282 276 270 263 256 251 244 236 231 227 225 220 216 213 212 210 207 203 201 201 201 202 202 202 200 198 197 196 194 193 194 195 195 195 195 196 196 198 199 201 203 205 208 210 212 213 215 217 218 219 220 222 224 225 226
308 309 310 311 313 314 315 316 317 318 319 320 319 317 312 308 306 306 306 306 307 307 308 308 307 305 301 297 291 285 279 274 268 260 253 247 242 235 230 227 225 221 216 212 211 210 207 204 201 200 201 201 201 200 199 197 196 195 195 194 194 194 194 195 196 196 197 198 199 201 203 206 208 211 213 214 215 217 218 219 221 223 224 225 226
308 309 310 311 312 313 314 315 317 317 318 319 318 315 310 306 305 305 305 305 305 305 306 306 305 303 300 295 289 283 278 272 266 258 250 244 239 234 230 227 225 222 217 212 210 209 208 205 201 200 201 201 201 199 198 197 196 195 195 195 193 193 194 195 196 197 198 199 200 202 204 206 208 211 212 213 215 217 219 220 222 223 224 225 225
307 309 310 311 312 313 314 315 316 317 318 318 316 312 308 305 304 305 305 305 304 304 304 304 303 302 298 293 287 281 276 270 264 256 248 241 236 232 229 227 225 222 218 213 209 208 207 205 202 201 201 201 201 200 199 197 196 195 196 195 194 194 195 197 198 198 199 200 201 203 205 207 209 211 212 214 215 217 219 221 222 224 225 225 226
307 308 309 311 311 312 314 315 316 316 317 316 313 309 306 304 304 305 305 304 304 303 303 303 302 300 297 291 284 278 274 268 262 254 247 240 234 230 227 226 224 222 219 215 210 207 206 205 202 201 201 201 201 200 200 199 198 197 197 197 196 196 197 198 199 199 200 201 203 204 206 208 210 211 213 214 216 217 219 221 222 224 225 226 227
307 308 309 310 311 312 313 314 315 315 315 314 311 307 305 304 304 304 304 303 302 302 302 302 301 299 295 289 282 276 271 266 260 253 245 238 233 228 225 224 224 222 219 216 212 208 206 204 203 201 201 201 201 201 201 200 200 199 199 199 198 198 199 200 200 201 201 202 203 205 206 208 210 211 213 215 216 217 219 220 222 224 226 227 228
306 307 308 309 310 311 312 313 314 314 313 311 308 305 303 303 303 303 303 302 301 301 301 300 300 297 293 287 280 274 268 263 258 252 244 237 232 227 224 222 222 221 219 217 214 210 207 205 203 202 201 201 201 201 201 202 202 201 201 201 200 200 201 201 201 202 203 203 204 206 207 209 210 212 213 214 216 216 217 218 219 221 223 224 225
305 307 308 309 310 310 311 312 313 312 311 309 306 304 302 302 303 303 302 301 300 300 299 299 298 296 291 285 278 272 266 260 256 250 243 236 231 227 223 221 220 220 218 217 215 212 209 206 203 202 202 201 200 201 202 203 204 204 204 204 203 203 203 203 203 204 204 205 206 207 208 210 211 212 214 215 215 215 216 216 216 218 220 221 222
305 306 307 308 309 310 311 311 311 311 309 307 305 303 302 302 302 302 301 300 300 299 298 298 296 293 289 283 277 270 264 258 253 248 242 235 229 226 222 220 219 218 217 215 214 212 210 208 205 203 202 201 201 201 202 204 205 205 206 206 205 205 205 206 206 206 206 207 208 209 210 211 212 214 215 216 216 217 217 217 217 217 219 220 222
304 305 306 307 308 309 310 310 310 309 307 305 303 302 301 302 302 301 300 299 299 297 297 296 294 291 287 281 275 269 262 256 251 246 241 234 228 225 222 219 217 217 216 214 213 211 210 208 206 204 202 202 201 201 203 204 205 206 207 207 207 207 207 207 208 208 208 208 209 210 211 212 213 215 216 217 218 219 220 220 220 220 221 222 224
303 304 305 306 307 308 308 309 308 307 306 304 302 301 301 301 301 299 298 298 297 296 295 294 292 289 285 279 273 267 261 255 249 245 240 234 228 224 222 219 217 216 215 214 212 211 209 208 206 204 203 202 201 202 203 204 205 206 207 208 208 209 209 209 209 209 209 209 210 211 212 212 214 216 217 218 219 220 221 222 223 223 224 225 225
303 304 305 306 306 307 308 308 307 305 304 302 301 301 301 301 300 298 297 297 296 295 294 292 290 287 283 278 271 266 260 253 248 244 239 233 228 224 221 219 217 215 214 213 212 211 209 208 206 204 204 203 202 202 203 204 205 206 208 209 209 210 210 210 210 210 210 210 210 211 212 212 214 216 217 218 219 221 222 223 224 225 225 226 225
302 303 304 305 306 307 307 306 305 303 302 301 300 301 301 300 299 297 296 296 295 293 292 290 288 285 281 276 270 264 259 253 247 243 239 234 228 224 221 219 217 215 213 213 212 211 210 208 206 204 203 203 203 202 203 203 205 206 207 209 210 210 211 211 211 211 211 211 211 212 212 213 213 215 216 217 219 220 221 223 224 224 225 226 226
302 303 304 305 306 306 306 304 303 301 300 300 300 300 300 299 297 296 295 295 293 292 290 288 286 283 279 274 268 263 258 252 247 242 239 234 228 224 222 220 218 215 213 212 211 211 210 209 207 205 203 203 203 203 203 203 205 206 207 208 209 210 211 211 212 212 212 212 212 212 213 213 213 214 215 216 217 219 220 221 223 224 225 226 226
301 302 303 304 305 305 304 302 301 300 299 300 300 300 299 298 296 294 294 294 292 290 288 286 284 281 277 272 267 262 258 252 246 242 238 234 229 225 222 220 218 216 214 212 211 211 210 209 208 206 204 202 203 203 204 204 204 206 207 208 209 210 211 211 212 212 212 212 212 213 213 214 214 215 216 216 217 219 220 221 222 223 225 226 226
301 302 303 304 304 303 302 300 299 299 299 300 300 299 298 296 295 293 293 292 290 288 286 284 282 279 275 271 266 261 257 252 246 242 239 234 229 225 222 220 218 216 214 213 211 211 210 209 209 208 205 203 202 203 204 204 205 206 207 208 209 210 211 212 212 213 213 213 213 214 214 215 215 216 217 217 218 220 221 222 223 223 224 226 226
Height
10413 10405 10397 10389 10380 10370 10361 10351 10341 10331 10321 10311 10302 10293 10285 10277 10269 10261 10252 10242 10232 10223 10216 10210 10204 10197 10190 10183 10177 10172 10167 10161 10154 10148 10142 10138 10134 10132 10130 10129 10126 10123 10121 10122 10123 10125 10126 10127 10129 10132 10137 10144 10152 10160 10168 10171 10173 10179 10188 10198 10211 10225 10235 10247 10266 10280 10290 10303 10317 10330 10345 10360 10374 10388 10402 10415 10425 10434 10444 10456 10468 10478 10488 10498 10506
10399 10392 10383 10375 10366 10357 10347 10338 10327 10317 10307 10298 10289 10280 10271 10263 10254 10246 10238 10228 10217 10208 10201 10195 10189 10182 10176 10169 10164 10157 10150 10145 10139 10134 10130 10126 10122 10119 10117 10117 10114 10109 10109 10109 10110 10113 10115 10116 10118 10119 10125 10133 10139 10147 10155 10159 10161 10168 10178 10189 10201 10214 10224 10237 10255 10267 10277 10291 10304 10317 10330 10345 10361 10377 10393 10405 10414 10423 10433 10444 10454 10464 10475 10484 10492
10386 10378 10369 10361 10352 10343 10334 10324 10314 10304 10295 10285 10276 10267 10258 10249 10240 10231 10223 10213 10203 10194 10186 10180 10174 10168 10162 10156 10150 10143 10136 10130 10125 10120 10117 10114 10111 10107 10104 10104 10101 10097 10096 10097 10098 10101 10104 10105 10106 10107 10113 10121 10128 10136 10144 10148 10151 10157 10168 10180 10192 10203 10213 10226 10242 10254 10264 10279 10292 10303 10316 10332 10349 10366 10384 10397 10406 10414 10424 10433 10443 10453 10462 10470 10478
10372 10364 10356 10347 10339 10330 10321 10311 10302 10292 10282 10273 10264 10255 10246 10237 10227 10217 10209 10200 10190 10181 10172 10165 10159 10153 10147 10142 10136 10129 10121 10116 10111 10106 10104 10102 10098 10095 10092 10090 10088 10085 10084 10085 10087 10089 10092 10094 10094 10096 10103 10111 10117 10124 10132 10137 10141 10148 10159 10170 10181 10192 10202 10215 10229 10240 10251 10265 10278 10290 10304 10321 10337 10353 10371 10384 10394 10404 10413 10421 10429 10438 10449 10457 10466
10358 10350 10343 10334 10326 10317 10308 10298 10289 10280 10271 10261 10252 10244 10234 10225 10215 10204 10195 10186 10177 10167 10160 10152 10146 10140 10134 10128 10122 10115 10107 10101 10097 10094 10092 10089 10085 10083 10080 10077 10075 10073 10072 10074 10077 10078 10081 10083 10084 10086 10093 10100 10106 10113 10121 10127 10131 10138 10149 10161 10171 10180 10191 10204 10218 10228 10238 10251 10266 10279 10293 10310 10326 10341 10357 10370 10379 10390 10400 10409 10415 10423 10436 10446 10455
10344 10337 10330 10322 10314 10305 10295 10286 10277 10268 10259 10250 10241 10232 10222 10213 10203 10192 10182 10174 10164 10155 10147 10140 10134 10127 10121 10115 10108 10101 10094 10088 10083 10081 10080 10077 10072 10071 10068 10065 10063 10062 10061 10063 10066 10068 10070 10072 10074 10077 10084 10090 10095 10102 10110 10117 10121 10127 10138 10149 10159 10168 10179 10193 10206 10216 10226 10240 10254 10267 10282 10300 10314 10328 10345 10356 10365 10378 10389 10397 10402 10410 10423 10434 10444
10330 10324 10317 10310 10302 10293 10284 10275 10266 10257 10248 10239 10230 10221 10211 10200 10190 10180 10170 10161 10152 10143 10136 10130 10123 10116 10110 10104 10096 10088 10081 10074 10070 10070 10069 10064 10060 10059 10056 10053 10052 10051 10051 10053 10056 10058 10059 10062 10064 10069 10074 10079 10084 10091 10099 10106 10111 10117 10127 10138 10146 10155 10166 10181 10194 10205 10217 10231 10243 10257 10273 10288 10302 10317 10333 10343 10352 10366 10379 10387 10392 10399 10409 10420 10432
10318 10312 10305 10298 10290 10282 10273 10263 10254 10245 10237 10228 10218 10209 10199 10188 10178 10168 10159 10149 10139 10131 10124 10119 10113 10106 10099 10093 10085 10077 10069 10061 10058 10058 10057 10052 10048 10047 10044 10042 10041 10040 10041 10043 10045 10047 10049 10052 10055 10059 10063 10068 10073 10081 10089 10096 10101 10107 10116 10127 10136 10144 10155 10169 10182 10194 10207 10219 10232 10248 10263 10276 10291 10308 10321 10327 10336 10350 10364 10377 10386 10392 10399 10409 10420
10306 10300 10294 10287 10278 10270 10261 10252 10243 10234 10225 10216 10206 10197 10187 10177 10167 10157 10147 10137 10128 10120 10113 10107 10102 10096 10089 10082 10074 10067 10058 10050 10047 10048 10045 10040 10038 10035 10033 10032 10031 10030 10031 10034 10035 10037 10039 10042 10045 10048 10053 10057 10063 10071 10079 10085 10091 10097 10105 10116 10126 10135 10146 10159 10172 10184 10195 10207 10222 10237 10251 10265 10281 10294 10303 10312 10326 10342 10357 10368 10374 10381 10390 10400 10410
10294 10288 10282 10275 10267 10259 10250 10241 10232 10222 10213 10204 10195 10186 10176 10166 10156 10147 10136 10126 10117 10109 10102 10096 10090 10085 10079 10071 10064 10057 10048 10040 10037 10037 10034 10030 10028 10024 10022 10022 10021 10020 10022 10024 10026 10028 10030 10032 10035 10038 10043 10049 10054 10061 10068 10075 10081 10087 10096 10107 10117 10126 10137 10151 10164 10175 10186 10198 10212 10227 10241 10256 10271 10282 10293 10308 10324 10339 10351 10359 10363 10369 10376 10385 10396
10282 10276 10270 10263 10255 10247 10239 10230 10220 10211 10202 10192 10183 10174 10165 10156 10147 10137 10126 10116 10106 10099 10092 10086 10080 10074 10068 10061 10054 10047 10039 10031 10028 10026 10023 10020 10019 10015 10011 10012 10012 10012 10014 10016 10017 10019 10021 10023 10026 10030 10035 10040 10045 10052 10059 10065 10071 10078 10087 10098 10107 10116 10129 10143 10155 10166 10178 10191 10204 10218 10232 10248 10263 10275 10289 10304 10318 10330 10339 10348 10354 10360 10367 10377 10387
10270 10264 10258 10251 10243 10236 10227 10218 10209 10199 10190 10181 10173 10164 10155 10146 10136 10126 10116 10105 10096 10088 10082 10076 10071 10065 10058 10051 10044 10037 10029 10023 10020 10016 10013 10011 10010 10006 10002 10002 10004 10005 10006 10008 10009 10011 10013 10014 10018 10022 10027 10032 10037 10043 10050 10057 10063 10071 10081 10091 10099 10108 10121 10135 10145 10155 10168 10182 10195 10208 10223 10240 10257 10270 10283 10296 10308 10319 10328 10337 10345 10354 10365 10377 10387
10257 10251 10245 10239 10232 10224 10216 10207 10198 10188 10179 10171 10162 10154 10145 10135 10125 10116 10105 10095 10085 10078 10072 10066 10060 10054 10047 10040 10034 10027 10020 10015 10011 10007 10004 10003 10001 9998 9994 9994 9996 9998 9999 10000 10001 10003 10005 10007 10011 10015 10020 10025 10030 10037 10043 10049 10056 10066 10076 10085 10092 10101 10114 10126 10135 10145 10158 10171 10185 10200 10215 10231 10248 10263 10276 10288 10299 10308 10317 10327 10338 10349 10361 10375 10386
10244 10239 10233 10227 10220 10213 10204 10196 10187 10177 10169 10160 10151 10143 10134 10124 10115 10104 10094 10084 10075 10068 10063 10057 10051 10045 10038 10031 10025 10017 10011 10008 10003 9998 9996 9995 9992 9989 9987 9987 9989 9991 9992 9993 9994 9995 9998 10001 10005 10009 10013 10018 10024 10030 10036 10042 10050 10060 10071 10079 10088 10097 10109 10119 10127 10138 10150 10163 10178 10195 10209 10224 10241 10256 10268 10281 10292 10303 10314 10325 10336 10347 10359 10371 10379
10232 10226 10221 10215 10209 10201 10193 10185 10176 10167 10158 10149 10141 10132 10123 10114 10104 10094 10084 10073 10064 10058 10053 10047 10042 10037 10029 10022 10016 10008 10002 10000 9996 9990 9988 9987 9984 9981 9979 9980 9982 9984 9985 9986 9987 9989 9991 9995 9999 10003 10007 10012 10017 10023 10029 10037 10046 10056 10066 10075 10083 10093 10103 10113 10122 10132 10144 10158 10175 10193 10206 10220 10235 10248 10259 10272 10286 10300 10314 10326 10335 10343 10351 10358 10362
10220 10214 10209 10204 10197 10189 10181 10173 10165 10156 10148 10139 10131 10122 10113 10103 10093 10083 10074 10062 10053 10048 10044 10038 10033 10028 10020 10013 10007 9999 9994 9992 9989 9983 9980 9979 9976 9973 9973 9974 9976 9977 9978 9979 9981 9983 9986 9989 9993 9997 10001 10005 10010 10016 10023 10031 10042 10052 10062 10070 10079 10089 10100 10108 10116 10127 10139 10154 10171 10188 10202 10217 10231 10240 10250 10266 10281 10293 10303 10310 10315 10322 10331 10340 10348
10209 10203 10198 10192 10185 10177 10170 10162 10154 10146 10137 10130 10122 10113 10103 10093 10083 10073 10063 10053 10043 10039 10035 10028 10022 10019 10012 10005 9998 9992 9985 9983 9981 9976 9973 9971 9968 9966 9967 9968 9969 9971 9972 9974 9975 9977 9980 9984 9988 9991 9995 9999 10005 10012 10019 10028 10038 10047 10056 10064 10074 10086 10096 10103 10111 10121 10134 10148 10166 10182 10195 10209 10222 10232 10243 10258 10271 10280 10284 10289 10298 10311 10322 10331 10341
10199 10192 10187 10181 10174 10166 10158 10151 10144 10136 10127 10121 10113 10104 10094 10083 10073 10062 10052 10042 10034 10029 10026 10019 10013 10009 10004 9996 9990 9984 9977 9975 9973 9969 9966 9964 9961 9959 9960 9962 9963 9965 9966 9968 9970 9973 9976 9980 9983 9987 9990 9994 9999 10006 10015 10024 10033 10042 10050 10058 10069 10082 10090 10096 10105 10116 10129 10144 10160 10175 10187 10198 10211 10222 10235 10246 10255 10263 10272 10284 10299 10311 10319 10326 10335
10188 10181 10175 10169 10162 10155 10147 10140 10134 10127 10118 10111 10103 10095 10085 10074 10063 10052 10041 10031 10024 10019 10016 10010 10003 9999 9994 9987 9981 9976 9970 9966 9965 9963 9960 9957 9954 9953 9954 9956 9958 9959 9961 9963 9965 9968 9971 9975 9978 9981 9985 9990 9996 10003 10011 10019 10027 10037 10045 10053 10065 10076 10082 10088 10099 10113 10126 10140 10154 10168 10180 10191 10204 10217 10228 10237 10246 10257 10270 10283 10294 10303 10312 10322 10330
10176 10170 10163 10157 10150 10143 10137 10130 10124 10117 10109 10102 10094 10085 10076 10065 10053 10043 10031 10020 10013 10010 10006 10001 9994 9990 9986 9979 9973 9968 9963 9958 9956 9955 9953 9950 9948 9947 9948 9951 9953 9954 9955 9958 9959 9962 9966 9969 9972 9975 9979 9986 9994 10002 10009 10016 10023 10031 10040 10049 10060 10067 10072 10083 10098 10110 10122 10135 10147 10160 10174 10187 10200 10212 10221 10230 10242 10254 10266 10276 10286 10296 10305 10315 10321
10165 10158 10152 10146 10139 10132 10126 10119 10113 10107 10100 10093 10085 10076 10066 10055 10043 10033 10022 10011 10005 10001 9996 9991 9985 9980 9977 9972 9966 9960 9955 9951 9949 9948 9946 9943 9941 9942 9943 9946 9947 9948 9950 9952 9955 9958 9961 9963 9966 9969 9974 9982 9991 9999 10007 10013 10020 10027 10036 10045 10052 10057 10066 10082 10096 10106 10117 10129 10141 10154 10169 10182 10193 10203 10213 10224 10236 10247 10257 10268 10279 10289 10298 10306 10315
10153 10147 10140 10133 10127 10121 10114 10108 10102 10096 10090 10083 10076 10067 10057 10045 10034 10023 10012 10003 9997 9992 9987 9983 9977 9971 9968 9964 9958 9953 9948 9944 9942 9941 9939 9937 9936 9936 9938 9940 9941 9942 9944 9947 9950 9954 9957 9959 9962 9965 9970 9977 9985 9994 10002 10010 10017 10024 10031 10038 10044 10051 10065 10082 10092 10101 10112 10124 10135 10150 10163 10174 10184 10194 10205 10217 10228 10238 10250 10262 10272 10281 10289 10300 10311
10141 10135 10128 10121 10115 10109 10103 10097 10091 10085 10079 10073 10066 10059 10049 10037 10025 10013 10002 9994 9989 9984 9978 9974 9969 9963 9959 9955 9951 9946 9941 9937 9936 9935 9932 9931 9931 9931 9933 9935 9936 9937 9939 9942 9946 9950 9953 9956 9959 9962 9968 9974 9981 9989 9997 10005 10014 10020 10026 10033 10039 10049 10065 10078 10087 10097 10108 10119 10132 10145 10157 10167 10177 10186 10197 10209 10220 10231 10243 10254 10263 10271 10281 10294 10306
10129 10123 10116 10109 10103 10097 10091 10086 10080 10074 10068 10062 10056 10049 10039 10029 10017 10004 9993 9985 9982 9977 9971 9965 9961 9956 9951 9947 9943 9939 9935 9931 9929 9928 9926 9926 9926 9926 9928 9930 9931 9932 9934 9937 9941 9945 9949 9952 9955 9960 9965 9971 9977 9984 9992 10000 10008 10015 10023 10030 10037 10049 10063 10074 10083 10094 10104 10116 10130 10143 10153 10163 10173 10182 10193 10205 10217 10229 10240 10249 10256 10263 10274 10287 10298
10116 10110 10104 10097 10091 10085 10079 10073 10068 10062 10057 10052 10047 10040 10030 10019 10008 9996 9985 9977 9974 9970 9964 9957 9953 9949 9945 9940 9936 9932 9928 9925 9923 9922 9921 9920 9921 9921 9923 9925 9926 9927 9930 9933 9937 9941 9944 9948 9951 9956 9961 9967 9973 9980 9987 9995 10003 10012 10020 10028 10036 10049 10062 10072 10081 10091 10102 10116 10130 10141 10151 10162 10173 10185 10197 10207 10216 10225 10232 10237 10242 10250 10261 10274 10282
10104 10098 10092 10086 10080 10073 10067 10061 10055 10050 10044 10039 10034 10028 10020 10009 9997 9987 9977 9970 9966 9962 9956 9950 9945 9941 9937 9934 9930 9926 9922 9918 9917 9916 9915 9915 9915 9916 9918 9919 9921 9922 9925 9929 9932 9936 9940 9943 9947 9952 9957 9963 9970 9977 9983 9990 9999 10008 10018 10026 10035 10048 10059 10069 10078 10090 10103 10116 10129 10140 10151 10162 10173 10184 10193 10199 10206 10214 10220 10226 10234 10245 10256 10266 10274
10091 10085 10080 10075 10069 10063 10056 10049 10043 10037 10032 10028 10022 10015 10007 9996 9985 9975 9967 9962 9959 9956 9949 9942 9938 9934 9929 9926 9924 9921 9917 9912 9911 9910 9909 9910 9910 9911 9913 9914 9916 9918 9922 9925 9928 9931 9935 9938 9943 9948 9954 9960 9966 9973 9979 9986 9995 10005 10015 10024 10033 10045 10056 10066 10077 10090 10102 10114 10125 10137 10148 10158 10166 10174 10180 10186 10194 10204 10215 10225 10233 10243 10253 10260 10267
10079 10073 10068 10063 10058 10052 10046 10040 10033 10025 10019 10015 10011 10005 9996 9984 9972 9963 9957 9954 9953 9951 9945 9938 9931 9928 9924 9919 9916 9915 9911 9907 9905 9904 9903 9904 9905 9907 9908 9909 9911 9914 9917 9920 9923 9926 9930 9934 9939 9945 9950 9956 9962 9969 9975 9983 9991 10001 10011 10020 10030 10041 10052 10063 10074 10086 10097 10108 10119 10128 10137 10146 10156 10164 10171 10179 10187 10197 10209 10219 10227 10236 10244 10250 10258
10067 10061 10057 10052 10047 10042 10036 10030 10024 10017 10008 10001 9995 9990 9984 9974 9962 9951 9945 9943 9945 9944 9940 9933 9927 9922 9919 9914 9911 9909 9905 9902 9900 9898 9898 9899 9900 9902 9904 9905 9907 9909 9912 9915 9918 9922 9926 9930 9935 9941 9946 9951 9958 9965 9971 9978 9986 9995 10005 10015 10026 10038 10048 10059 10071 10082 10092 10102 10111 10119 10127 10137 10148 10157 10166 10175 10182 10191 10201 10210 10219 10226 10233 10240 10251
10056 10050 10046 10041 10036 10031 10025 10019 10014 10008 10001 9992 9983 9973 9965 9957 9949 9940 9933 9932 9935 9935 9932 9926 9921 9916 9912 9908 9907 9904 9900 9896 9895 9893 9893 9894 9896 9898 9899 9900 9902 9904 9907 9910 9914 9919 9924 9929 9933 9938 9944 9949 9955 9962 9969 9975 9982 9989 9999 10010 10022 10034 10045 10056 10067 10077 10087 10097 10107 10116 10125 10133 10143 10152 10161 10169 10176 10184 10193 10202 10210 10217 10225 10235 10245
10045 10040 10035 10030 10026 10020 10014 10008 10003 9998 9992 9986 9977 9966 9953 9941 9932 9925 9920 9920 9923 9926 9924 9918 9912 9909 9906 9901 9900 9899 9895 9891 9890 9889 9888 9888 9891 9893 9895 9896 9897 9899 9903 9907 9911 9916 9922 9926 9931 9937 9943 9949 9955 9961 9967 9974 9980 9986 9994 10005 10017 10030 10041 10051 10062 10073 10083 10093 10103 10112 10121 10129 10139 10148 10156 10163 10172 10180 10187 10194 10200 10208 10217 10229 10239
10034 10029 10024 10020 10015 10009 10003 9998 9993 9988 9983 9977 9970 9962 9949 9934 9920 9911 9906 9906 9910 9916 9918 9912 9904 9901 9899 9896 9893 9892 9890 9887 9885 9884 9883 9883 9885 9888 9890 9891 9893 9895 9898 9903 9907 9912 9917 9922 9926 9932 9938 9945 9953 9959 9966 9973 9979 9984 9992 10002 10013 10024 10035 10045 10057 10068 10079 10089 10099 10107 10116 10125 10135 10143 10150 10157 10166 10173 10179 10185 10193 10202 10212 10222 10231
10022 10018 10014 10009 10004 9998 9993 9988 9983 9978 9973 9968 9961 9953 9944 9932 9919 9907 9898 9894 9894 9901 9909 9908 9900 9894 9891 9889 9887 9886 9884 9882 9880 9879 9878 9878 9880 9883 9885 9886 9888 9891 9894 9899 9903 9907 9911 9916 9921 9927 9932 9939 9947 9954 9961 9969 9976 9982 9990 9999 10008 10018 10028 10039 10051 10062 10074 10085 10095 10104 10113 10122 10130 10137 10143 10151 10159 10166 10172 10180 10189 10197 10205 10213 10222
10012 10007 10002 9998 9993 9988 9982 9977 9972 9967 9963 9958 9952 9944 9934 9924 9915 9905 9897 9890 9885 9886 9892 9897 9895 9889 9884 9881 9880 9879 9878 9876 9875 9874 9874 9874 9875 9878 9880 9881 9884 9887 9890 9894 9898 9902 9906 9911 9916 9922 9928 9934 9942 9949 9957 9964 9971 9979 9987 9995 10005 10014 10024 10034 10045 10057 10068 10079 10089 10098 10108 10116 10123 10129 10137 10145 10152 10159 10166 10174 10181 10187 10195 10204 10213
10001 9996 9991 9987 9982 9977 9971 9966 9961 9957 9952 9947 9942 9934 9925 9915 9906 9899 9893 9888 9884 9881 9881 9885 9885 9882 9878 9875 9873 9872 9871 9870 9869 9869 9869 9869 9870 9873 9875 9876 9879 9882 9886 9890 9893 9896 9900 9905 9911 9917 9923 9930 9937 9945 9952 9960 9968 9976 9984 9992 10002 10012 10021 10032 10043 10053 10062 10072 10082 10092 10102 10109 10116 10123 10131 10138 10146 10153 10160 10167 10173 10181 10190 10198 10205
9989 9984 9980 9976 9971 9966 9961 9955 9951 9946 9941 9936 9931 9923 9915 9906 9898 9892 9887 9883 9880 9877 9876 9876 9876 9874 9871 9868 9866 9865 9864 9863 9863 9864 9864 9864 9865 9867 9869 9871 9874 9877 9882 9886 9888 9891 9895 9900 9905 9912 9918 9925 9933 9940 9947 9955 9964 9972 9980 9989 9999 10009 10020 10030 10041 10050 10058 10068 10077 10087 10095 10103 10110 10116 10123 10131 10139 10147 10155 10162 10168 10175 10182 10189 10196
9978 9973 9969 9964 9960 9955 9950 9945 9940 9935 9930 9925 9919 9911 9903 9896 9889 9885 9881 9876 9873 9871 9869 9868 9868 9866 9864 9861 9859 9858 9857 9857 9857 9858 9858 9859 9860 9861 9864 9866 9868 9872 9877 9881 9884 9887 9891 9895 9900 9906 9912 9919 9927 9935 9943 9951 9959 9968 9976 9985 9995 10005 10016 10026 10036 10045 10053 10063 10072 10080 10088 10095 10102 10109 10116 10125 10133 10141 10148 10154 10160 10167 10173 10180 10187
9967 9962 9957 9953 9949 9944 9939 9934 9930 9924 9919 9914 9907 9899 9892 9885 9880 9877 9874 9870 9867 9865 9863 9861 9859 9858 9857 9855 9852 9850 9850 9850 9850 9851 9852 9854 9855 9856 9858 9861 9863 9867 9872 9876 9880 9884 9887 9891 9895 9901 9908 9915 9922 9930 9937 9946 9955 9964 9972 9981 9990 10000 10011 10020 10029 10038 10047 10056 10064 10073 10080 10088 10095 10103 10111 10120 10128 10135 10141 10147 10153 10158 10164 10171 10178
9955 9950 9945 9942 9938 9933 9928 9924 9919 9914 9908 9902 9895 9888 9881 9874 9870 9868 9866 9862 9859 9857 9856 9854 9852 9850 9849 9848 9846 9844 9843 9843 9843 9845 9846 9847 9849 9850 9853 9855 9858 9861 9866 9871 9875 9879 9883 9888 9892 9898 9904 9911 9918 9926 9933 9940 9949 9958 9967 9976 9985 9994 10004 10014 10023 10032 10041 10049 10058 10066 10074 10081 10089 10097 10105 10113 10121 10127 10134 10139 10145 10150 10156 10164 10173
9944 9938 9934 9931 9926 9921 9917 9913 9908 9903 9898 9891 9884 9877 9870 9864 9860 9858 9856 9854 9851 9849 9847 9846 9845 9843 9842 9841 9840 9838 9836 9835 9836 9838 9839 9841 9843 9845 9847 9849 9852 9856 9860 9866 9870 9874 9878 9884 9889 9894 9900 9907 9915 9923 9930 9936 9944 9952 9960 9969 9979 9988 9998 10007 10017 10025 10034 10043 10052 10060 10067 10074 10082 10089 10097 10105 10112 10119 10126 10133 10138 10143 10150 10158 10167
9932 9927 9923 9919 9915 9910 9907 9902 9898 9894 9888 9880 9874 9866 9859 9855 9851 9849 9847 9845 9842 9840 9839 9838 9836 9836 9834 9833 9833 9831 9829 9828 9829 9831 9833 9834 9836 9839 9841 9844 9847 9850 9854 9860 9865 9869 9873 9878 9884 9890 9896 9903 9911 9919 9926 9933 9940 9947 9954 9963 9973 9982 9991 10001 10011 10020 10029 10037 10045 10053 10060 10067 10074 10081 10088 10096 10104 10111 10118 10125 10130 10136 10143 10150 10156
9921 9916 9912 9908 9904 9900 9896 9892 9888 9883 9877 9870 9863 9856 9850 9846 9843 9840 9838 9836 9833 9831 9831 9829 9828 9828 9827 9825 9825 9824 9823 9822 9822 9823 9826 9828 9830 9832 9835 9838 9841 9844 9848 9853 9859 9863 9867 9872 9878 9884 9891 9898 9906 9914 9921 9928 9936 9944 9951 9959 9968 9976 9985 9994 10004 10013 10022 10031 10039 10046 10053 10060 10067 10074 10081 10088 10095 10102 10109 10115 10121 10128 10135 10141 10145
9910 9905 9901 9897 9892 9889 9885 9881 9877 9872 9866 9859 9852 9846 9840 9836 9834 9832 9830 9827 9824 9822 9822 9821 9820 9819 9818 9818 9818 9817 9816 9815 9815 9816 9819 9821 9823 9826 9829 9832 9835 9838 9842 9847 9853 9857 9862 9866 9872 9878 9885 9892 9900 9909 9917 9924 9932 9940 9948 9956 9964 9972 9980 9988 9997 10006 10015 10023 10032 10040 10047 10054 10061 10067 10073 10079 10085 10092 10099 10106 10113 10120 10126 10131 10137
9898 9894 9890 9885 9881 9878 9874 9870 9865 9860 9854 9848 9841 9836 9831 9827 9824 9822 9820 9818 9815 9813 9812 9812 9812 9811 9811 9810 9810 9809 9809 9809 9808 9809 9811 9814 9816 9819 9822 9825 9829 9832 9836 9841 9846 9851 9856 9861 9865 9871 9878 9885 9894 9903 9911 9919 9928 9936 9944 9952 9960 9967 9974 9982 9990 9999 10007 10016 10025 10033 10040 10048 10055 10060 10065 10071 10077 10083 10089 10097 10105 10111 10116 10122 10128
9886 9883 9879 9874 9871 9867 9863 9858 9854 9848 9843 9836 9830 9825 9821 9818 9815 9813 9811 9809 9807 9804 9803 9803 9803 9803 9803 9802 9802 9802 9802 9802 9802 9803 9804 9807 9810 9812 9815 9818 9822 9826 9829 9834 9839 9844 9849 9854 9860 9865 9871 9878 9887 9896 9905 9913 9922 9930 9938 9947 9954 9962 9969 9976 9984 9992 10000 10009 10017 10025 10033 10041 10048 10053 10059 10064 10070 10076 10082 10090 10097 10103 10108 10114 10121
9875 9872 9868 9864 9860 9856 9851 9847 9842 9836 9831 9825 9819 9815 9811 9809 9806 9803 9802 9800 9798 9795 9794 9794 9794 9794 9795 9794 9793 9794 9795 9795 9795 9796 9797 9800 9803 9805 9808 9811 9815 9819 9823 9827 9831 9836 9842 9847 9853 9859 9865 9871 9880 9888 9897 9907 9916 9924 9932 9940 9948 9955 9962 9969 9977 9985 9993 10001 10009 10017 10025 10033 10040 10046 10052 10058 10063 10069 10076 10082 10088 10093 10098 10105 10113
9864 9861 9857 9853 9849 9844 9840 9835 9830 9824 9819 9813 9808 9804 9802 9799 9796 9793 9792 9791 9789 9787 9785 9785 9785 9786 9786 9786 9786 9786 9787 9787 9788 9789 9790 9793 9796 9798 9801 9805 9808 9812 9816 9820 9824 9830 9835 9839 9845 9852 9858 9865 9872 9881 9890 9899 9908 9917 9925 9933 9941 9949 9956 9963 9970 9978 9985 9993 10001 10008 10016 10024 10030 10036 10043 10049 10054 10060 10066 10071 10077 10083 10089 10095 10102
9853 9850 9846 9842 9837 9833 9828 9823 9818 9812 9807 9802 9798 9794 9792 9789 9785 9783 9782 9782 9780 9778 9777 9776 9776 9777 9778 9778 9778 9778 9779 9780 9781 9782 9784 9786 9789 9791 9794 9797 9801 9805 9810 9813 9817 9823 9828 9832 9838 9844 9851 9858 9866 9873 9882 9891 9900 9909 9917 9925 9933 9941 9949 9956 9962 9970 9977 9984 9991 9998 10006 10014 10020 10026 10032 10039 10044 10050 10055 10060 10067 10073 10079 10084 10090
9843 9839 9835 9830 9826 9821 9816 9811 9806 9801 9796 9792 9788 9785 9782 9779 9775 9773 9772 9772 9771 9770 9768 9767 9767 9768 9769 9770 9770 9770 9771 9772 9774 9775 9777 9779 9782 9784 9787 9790 9794 9798 9803 9807 9811 9815 9820 9825 9831 9836 9842 9850 9859 9866 9874 9883 9892 9900 9908 9916 9924 9933 9940 9947 9953 9960 9967 9974 9981 9988 9995 10002 10009 10014 10021 10027 10033 10038 10043 10049 10056 10062 10068 10073 10079
9831 9827 9823 9819 9814 9809 9804 9799 9794 9789 9786 9783 9779 9776 9773 9769 9766 9763 9763 9762 9761 9761 9760 9759 9759 9759 9761 9762 9762 9762 9763 9764 9766 9768 9769 9772 9774 9777 9780 9783 9786 9791 9795 9800 9804 9808 9813 9818 9824 9829 9834 9842 9850 9858 9866 9875 9883 9891 9899 9907 9915 9923 9931 9937 9944 9950 9956 9963 9970 9976 9982 9990 9997 10003 10010 10016 10021 10026 10032 10038 10046 10052 10057 10063 10068
9819 9815 9811 9807 9802 9797 9791 9787 9782 9778 9776 9773 9769 9766 9763 9760 9756 9754 9754 9753 9752 9751 9751 9751 9750 9751 9752 9753 9754 9755 9756 9757 9758 9760 9762 9764 9767 9769 9772 9775 9779 9783 9787 9792 9797 9801 9806 9811 9816 9822 9827 9833 9840 9849 9857 9866 9874 9882 9890 9897 9905 9913 9920 9927 9933 9940 9946 9952 9958 9963 9970 9977 9985 9991 9998 10004 10009 10014 10020 10027 10034 10042 10047 10053 10058